Location: Joplin, MO
(37.0842°N, 94.5133°W)
Time: 14:03:56
(UTC+02:00)

Tiros 1 despin weight - Visible Passes

Search period start: 30 March 2023 00:00
Search period end: 09 April 2023 00:00
Orbit: 588 x 634 km, 48.2° (Epoch: 29 March)

Date Brightness Start Highest point End Pass type
(mag) Time Alt. Az. Time Alt. Az. Time Alt. Az.
30 Mar ? 03:03:24 10° SW 03:07:46 85° NW 03:12:10 10° NE visible
30 Mar ? 04:45:58 10° WNW 04:49:37 25° NNW 04:51:07 21° NNE visible
31 Mar ? 03:17:48 10° WSW 03:22:02 49° NNW 03:26:18 10° NE visible
31 Mar ? 05:00:52 10° WNW 05:04:11 21° N 05:05:00 20° N visible
01 Apr ? 03:32:29 10° W 03:36:25 32° NNW 03:40:22 10° NE visible
01 Apr ? 05:15:39 10° NW 05:18:45 19° N 05:18:45 19° N visible
02 Apr ? 03:47:21 10° WNW 03:50:54 24° NNW 03:54:28 10° NE visible
02 Apr ? 05:30:10 10° NW 05:32:24 18° NNW 05:32:24 18° NNW visible
03 Apr ? 04:02:13 10° NW 04:05:27 20° N 04:08:43 10° NE visible
03 Apr ? 05:44:26 10° NW 05:46:00 17° NNW 05:46:00 17° NNW visible
04 Apr ? 04:16:55 10° NW 04:20:03 19° N 04:22:38 12° NE visible
04 Apr ? 05:58:32 10° NW 05:59:32 15° NW 05:59:32 15° NW visible
05 Apr ? 04:31:21 10° NW 04:34:38 20° N 04:36:09 17° NE visible
05 Apr ? 06:12:34 10° NW 06:13:03 13° NW 06:13:03 13° NW visible
06 Apr ? 04:45:32 10° NW 04:49:09 24° NNE 04:49:38 24° NNE visible
07 Apr ? 03:18:05 10° NW 03:21:13 19° N 03:24:22 10° NE visible
07 Apr ? 04:59:34 10° NW 05:03:07 32° N 05:03:07 32° N visible
08 Apr ? 03:32:25 10° NW 03:35:46 21° N 03:39:07 10° ENE visible
08 Apr ? 05:13:34 10° NW 05:16:36 38° NNW 05:16:36 38° NNW visible
